Regional Weather Roundup
Issued by NWS Northern Indiana

Home | Current Version | Previous Version | Text Only | Print | Product List | Glossary Off
Versions: 1 2 3 4 5 6 7 8 9 10 11 12 13 14 15 16 17 18 19 20 21 22 23 24 25 26 27 28 29 30 31 32 33 34 35 36 37 38 39 40 41 42 43 44 45 46 47 48 49 50

000
ASUS43 KIWX 272010
RWRIWX

KIWX WEATHER ROUNDUP
NATIONAL WEATHER SERVICE NORTHERN INDIANA
300 PM EST SAT DEC 27 2014

NOTE: "FAIR" INDICATES FEW OR NO CLOUDS BELOW 12,000 FEET WITH NO
SIGNIFICANT WEATHER AND/OR OBSTRUCTIONS TO VISIBILITY.

* THESE STATIONS ARE NOT UNDER NWS QUALITY CONTROL. THEY ALSO MAY NOT
  REPORT WEATHER SUCH AS PRECIPITATION OR FOG.

INZ001>027-272100-
NORTHERN INDIANA

CITY           SKY/WX    TMP DP  RH WIND       PRES   REMARKS
GARY*          CLOUDY    41  30  65 W21G36    29.98F
VALPARAISO     CLOUDY    40  37  89 SW21G30   30.00R
MICHIGAN CITY* CLOUDY    41  37  87 W8G16     29.98R
LAPORTE*       CLOUDY    46  46 100 W16G30    29.97R
KNOX*          CLOUDY    48  44  83 SW20      29.96F
SOUTH BEND     CLOUDY    49  46  90 SW14      29.95F
GOSHEN         CLOUDY    47  45  93 SW14      29.95F
MONTICELLO*    CLOUDY    47  46  97 SW14      30.00F
LOGANSPORT*    CLOUDY    45  45 100 SW15      30.02R FOG
ROCHESTER*     CLOUDY    50  48  93 SW14      30.00R
WARSAW*        CLOUDY    46  45  93 SW12G17   29.98F
ANGOLA*        CLOUDY    46  45  93 SW13      29.96F
FORT WAYNE     CLOUDY    46  44  93 SW13      30.01F
HUNTINGTON*    CLOUDY    46  41  84 SW9G17    29.99F
PERU/GRISSOM   CLOUDY    47  47 100 SW15      30.00F
MARION*        CLOUDY    47  45  94 SW10G17   30.01F

$$
INZ028>050-272100-
CENTRAL INDIANA

CITY           SKY/WX    TMP DP  RH WIND       PRES   REMARKS
LAFAYETTE      CLOUDY    47  46  97 SW7       30.02F FOG
KOKOMO*        CLOUDY    46  45  93 SW14      30.01F
MUNCIE*        CLOUDY    47  44  90 SW12      30.04S
INDIANAPOLIS   DRZL/FOG  46  45  96 SW12      30.05F VSB 1/2

$$
MIZ043>046-050>051-056>058-064>065-071>073-077>080-272100-
SOUTHWEST LOWER MICHIGAN

CITY           SKY/WX    TMP DP  RH WIND       PRES   REMARKS
BATTLE CREEK   CLOUDY    48  45  89 SW17G28   29.92F FOG
BENTON HARBOR  CLOUDY    42  40  92 W17G30    29.95R FOG
COLDWATER*     CLOUDY    46  45  97 SW13G28   29.95F FOG
HILLSDALE*     CLOUDY    46  46 100 SW15      29.96S FOG
HOLLAND        CLOUDY    44  39  82 SW23G33   29.91R
GRAND RAPIDS   LGT RAIN  49  44  83 SW18G29   29.88S
KALAMAZOO      CLOUDY    48  45  89 SW16G25   29.92F FOG
STURGIS*       CLOUDY    46  45  93 SW16G23   29.94F FOG
THREE RIVERS*  CLOUDY    47  45  94 SW12G18   29.92F FOG

$$
OHZ001>008-015>018-024>025-272100-
NORTHWEST OHIO

CITY           SKY/WX    TMP DP  RH WIND       PRES   REMARKS
WAUSEON*       CLOUDY    46  46 100 SW15G24   29.98F
DEFIANCE       CLOUDY    47  44  90 SW10G22   30.01F
FINDLAY        CLOUDY    50  44  80 SW20      30.01F
TOLEDO EXPRESS CLOUDY    47  43  86 SW17G26   29.98F
TOLEDO METCALF CLOUDY    48  45  89 SW15      30.00S FOG
LIMA           CLOUDY    50  44  80 SW15G22   30.03F

$$
AND FOR LAKE MICHIGAN COASTAL AND OPEN LAKE BUOY OBSERVATIONS

STATION/POSITION TEMP    WIND        PRES    VSBY  WAVE
                 AIR SEA DIR/SP/G                  HT/PER
                 (F)     (DEG/KT/KT) (MB)    (MI)  (FT/S)
CALUMET HARBOR    39     230/ 16/ 24 1014.7R
MICHIGAN CITY            240/ 27/ 32   N/A
SAINT JOSEPH      41     230/ 18/ 24 1013.9F

$$
&&


USA.gov is the U.S. government's official web portal to all federal, state and local government web resources and services.